Evansville, IN

2:23 AM CST on December 13, 2019 (GMT -0600)
Evansville Regional

Weather History for KEVV - November, 2019

Change the Weather History Date:

Wednesday, November 13, 2019

  Actual Average Record
Temperature  
Mean Temperature 22 °F 48 °F  
Max Temperature 34 °F 58 °F 82 °F (1955)
Min Temperature 9 °F 37 °F 14 °F (1986)
Degree Days  
Heating Degree Days 44 17  
Month to date heating degree days 354 195  
Since 1 July heating degree days 607 498  
Cooling Degree Days 0 0  
Month to date cooling degree days 0 0  
Year to date cooling degree days 1640 1395  
Moisture  
Dew Point 14 °F    
Average Humidity 68    
Maximum Humidity 84    
Minimum Humidity 49    
Precipitation  
Precipitation 0.00 in 0.15 in 2.61 in (1957)
Month to date precipitation 1.18 1.73  
Year to date precipitation 53.52 38.95  
Snow  
Snow 0.00 in 0.00 in 0.10 in (2018)
Month to date snowfall 1.1 0.0  
Since 1 July snowfall 1.1 0.2  
Since 1 September snowfall 1.1 0.2  
Snow Depth T in    
Sea Level Pressure  
Sea Level Pressure 30.34 in    
Wind  
Wind Speed 3 mph ()    
Max Wind Speed 14 mph    
Max Gust Speed 20 mph    
Visibility 10.0 miles    
Events      
T = Trace of Precipitation, MM = Missing Value Source: Averaged Metar Reports

Daily Weather History Graph

Daily Weather History Graph

Search for Another Location

Airport or City:

Astronomy

Nov. 13, 2019 Rise Set
Actual Time 6:28 AM CST 4:39 PM CST
Civil Twilight 6:00 AM CST 5:07 PM CST
Nautical Twilight 5:28 AM CST 5:39 PM CST
Astronomical Twilight 4:57 AM CST 6:10 PM CST
Moon 5:43 PM CST 7:21 AM CST
Length of Visible Light 11h 07m
Length of Day
10h 11m
Full, 99% of the Moon is Illuminated
Nov 13
Full
Nov 19
Last Quarter
Nov 26
New
Dec 4
First Quarter
Dec 11
Full

Hourly Weather History & Observations

Time (CST) Temp. Windchill Dew Point Humidity Pressure Visibility Wind Dir Wind Speed Gust Speed Precip Events Conditions
12:54 AM 9.0 °F - 5.0 °F 84% 30.50 in 10.0 mi Calm Calm - N/A   Clear
1:54 AM 10.9 °F - 5.0 °F 77% 30.48 in 10.0 mi Calm Calm - N/A   Clear
2:54 AM 10.9 °F - 6.1 °F 81% 30.48 in 10.0 mi Calm Calm - N/A   Clear
3:54 AM 10.0 °F - 6.1 °F 84% 30.47 in 10.0 mi Calm Calm - N/A   Clear
4:54 AM 10.9 °F - 7.0 °F 84% 30.46 in 10.0 mi Calm Calm - N/A   Clear
5:54 AM 10.9 °F 4.7 °F 6.1 °F 81% 30.43 in 10.0 mi East 3.5 mph - N/A   Clear
6:54 AM 12.0 °F 5.9 °F 6.1 °F 77% 30.42 in 10.0 mi East 3.5 mph - N/A   Clear
7:54 AM 16.0 °F 10.4 °F 10.9 °F 81% 30.42 in 10.0 mi Variable 3.5 mph - N/A   Clear
8:54 AM 21.9 °F 12.5 °F 14.0 °F 72% 30.40 in 10.0 mi SE 8.1 mph - N/A   Clear
9:54 AM 24.1 °F 16.0 °F 14.0 °F 65% 30.42 in 10.0 mi South 6.9 mph - N/A   Clear
10:54 AM 26.1 °F 16.8 °F 15.1 °F 63% 30.42 in 10.0 mi SSW 9.2 mph 18.4 mph N/A   Clear
11:54 AM 28.9 °F 23.9 °F 17.1 °F 61% 30.36 in 10.0 mi Variable 4.6 mph - N/A   Clear
12:54 PM 30.9 °F 22.2 °F 14.0 °F 50% 30.29 in 10.0 mi SE 10.4 mph - N/A   Clear
1:54 PM 32.0 °F 24.2 °F 18.0 °F 56% 30.25 in 10.0 mi SE 9.2 mph - N/A   Clear
3:54 PM 33.1 °F 27.7 °F 18.0 °F 54% 30.25 in 10.0 mi SSE 5.8 mph - N/A   Clear
4:54 PM 30.9 °F 27.5 °F 19.0 °F 61% 30.24 in 10.0 mi East 3.5 mph - N/A   Clear
5:54 PM 30.0 °F 25.2 °F 19.0 °F 64% 30.22 in 10.0 mi SE 4.6 mph - N/A   Clear
6:54 PM 28.9 °F 23.9 °F 19.0 °F 67% 30.22 in 10.0 mi SSE 4.6 mph - N/A   Clear
7:54 PM 30.9 °F 24.3 °F 17.1 °F 57% 30.20 in 10.0 mi South 6.9 mph - N/A   Clear
8:54 PM 30.9 °F 21.7 °F 18.0 °F 59% 30.19 in 10.0 mi South 11.5 mph - N/A   Clear
9:54 PM 30.9 °F 22.8 °F 19.0 °F 61% 30.19 in 10.0 mi South 9.2 mph - N/A   Clear
10:54 PM 28.9 °F 23.9 °F 19.0 °F 67% 30.21 in 10.0 mi SW 4.6 mph - N/A   Clear
11:54 PM 30.0 °F 26.5 °F 19.9 °F 66% 30.21 in 10.0 mi South 3.5 mph - N/A   Clear